Weather History for KCKI - April, 2013

Change the Weather History Date:

Saturday, April 27, 2013

  Actual Average Record
Temperature  
Mean Temperature 65 °F -  
Max Temperature 77 °F 78 °F 89 °F (2012)
Min Temperature 53 °F 50 °F 51 °F (2014)
Growing Degree Days 15 (Base 50)    
Moisture  
Dew Point 52 °F    
Average Humidity 69    
Maximum Humidity 100    
Minimum Humidity 38    
Precipitation  
Precipitation 0.00 in - - ()
Sea Level Pressure  
Sea Level Pressure 30.31 in    
Wind  
Wind Speed 2 mph (East)    
Max Wind Speed 9 mph    
Max Gust Speed -    
Visibility 10 miles    
Events      
Averages and records for this station are not official NWS values.
T = Trace of Precipitation, MM = Missing Value Source: NWS Daily Summary

Daily Weather History Graph

Daily Weather History Graph

Search for Another Location

Airport or City:

Trip Planner

Search our weather history database for the weather conditions in past years. The results will help you decide how hot, cold, wet, or windy it might be!

Date:

Astronomy

Apr. 27, 2013 Rise Set
Actual Time 6:34 AM EDT 7:59 PM EDT
Civil Twilight 6:08 AM EDT 8:26 PM EDT
Nautical Twilight 5:36 AM EDT 8:57 PM EDT
Astronomical Twilight 5:04 AM EDT 9:30 PM EDT
Moon 10:22 PM EDT (4/27) 7:56 AM EDT (4/27)
Length of Visible Light 14h 17m
Length of Day
13h 25m
Waning Gibbous, 95% of the Moon is Illuminated
Apr 27
Waning Gibbous
May 2
Last Quarter
May 9
New
May 18
First Quarter
May 25
Full

Hourly Weather History & Observations

Time (EDT) Temp. Dew Point Humidity Pressure Visibility Wind Dir Wind Speed Gust Speed Precip Events Conditions
12:15 AM 55.4 °F 50.0 °F 82% 30.35 in 10.0 mi Calm Calm - N/A   Clear
12:35 AM 55.4 °F 50.0 °F 82% 30.34 in 10.0 mi Calm Calm - N/A   Clear
12:55 AM 55.4 °F 51.8 °F 88% 30.34 in 10.0 mi Calm Calm - N/A   Clear
1:15 AM 53.6 °F 50.0 °F 88% 30.34 in 10.0 mi Calm Calm - N/A   Clear
1:35 AM 55.4 °F 51.8 °F 88% 30.35 in 10.0 mi Calm Calm - N/A   Clear
1:55 AM 53.6 °F 51.8 °F 94% 30.35 in 10.0 mi Calm Calm - N/A   Clear
2:15 AM 53.6 °F 51.8 °F 94% 30.34 in 10.0 mi Calm Calm - N/A   Clear
2:35 AM 55.4 °F 51.8 °F 88% 30.33 in 10.0 mi Calm Calm - N/A   Clear
2:55 AM 57.2 °F 53.6 °F 88% 30.34 in 10.0 mi Calm Calm - N/A   Clear
3:15 AM 55.4 °F 53.6 °F 94% 30.33 in 10.0 mi Calm Calm - N/A   Clear
3:35 AM 57.2 °F 53.6 °F 88% 30.33 in 10.0 mi Calm Calm - N/A   Clear
3:55 AM 55.4 °F 53.6 °F 94% 30.33 in 10.0 mi Calm Calm - N/A   Clear
4:15 AM 55.4 °F 53.6 °F 94% 30.33 in 10.0 mi Calm Calm - N/A   Clear
4:35 AM 55.4 °F 53.6 °F 94% 30.33 in 10.0 mi Calm Calm - N/A   Clear
4:55 AM 57.2 °F 53.6 °F 88% 30.33 in 10.0 mi Calm Calm - N/A   Clear
5:15 AM 57.2 °F 53.6 °F 88% 30.33 in 10.0 mi Calm Calm - N/A   Clear
5:35 AM 57.2 °F 55.4 °F 94% 30.33 in 10.0 mi Calm Calm - N/A   Clear
5:55 AM 55.4 °F 55.4 °F 100% 30.33 in 10.0 mi Calm Calm - N/A   Clear
6:15 AM 55.4 °F 55.4 °F 100% 30.33 in 10.0 mi Calm Calm - N/A   Clear
7:35 AM 55.4 °F 55.4 °F 100% 30.34 in 10.0 mi Calm Calm - N/A   Clear
7:55 AM 57.2 °F 55.4 °F 94% 30.35 in 10.0 mi Calm Calm - N/A   Clear
8:15 AM 59.0 °F 57.2 °F 94% 30.35 in 10.0 mi Calm Calm - N/A   Clear
8:35 AM 59.0 °F 57.2 °F 94% 30.36 in 10.0 mi Calm Calm - N/A   Clear
9:15 AM 60.8 °F 57.2 °F 88% 30.36 in 10.0 mi Calm Calm - N/A   Clear
9:35 AM 62.6 °F 57.2 °F 82% 30.36 in 10.0 mi Calm Calm - N/A   Clear
9:55 AM 64.4 °F 57.2 °F 77% 30.35 in 10.0 mi Calm Calm - N/A   Clear
10:15 AM 66.2 °F 59.0 °F 78% 30.34 in 10.0 mi Calm Calm - N/A   Clear
10:35 AM 69.8 °F 57.2 °F 64% 30.34 in 10.0 mi Calm Calm - N/A   Clear
10:55 AM 69.8 °F 55.4 °F 60% 30.33 in 10.0 mi East 5.8 mph - N/A   Clear
11:15 AM 71.6 °F 53.6 °F 53% 30.34 in 10.0 mi East 4.6 mph - N/A   Clear
11:35 AM 71.6 °F 53.6 °F 53% 30.33 in 10.0 mi East 4.6 mph - N/A   Clear
11:55 AM 71.6 °F 51.8 °F 50% 30.34 in 10.0 mi East 4.6 mph - N/A   Clear
12:15 PM 71.6 °F 53.6 °F 53% 30.33 in 10.0 mi NE 3.5 mph - N/A   Clear
12:35 PM 73.4 °F 51.8 °F 47% 30.33 in 10.0 mi NE 3.5 mph - N/A   Clear
12:55 PM 73.4 °F 53.6 °F 50% 30.31 in 10.0 mi Calm Calm - N/A   Clear
1:15 PM 73.4 °F 53.6 °F 50% 30.31 in 10.0 mi East 6.9 mph - N/A   Clear
1:35 PM 75.2 °F 51.8 °F 44% 30.30 in 10.0 mi ESE 5.8 mph - N/A   Clear
1:55 PM 75.2 °F 51.8 °F 44% 30.31 in 10.0 mi East 6.9 mph - N/A   Clear
2:15 PM 75.2 °F 51.8 °F 44% 30.30 in 10.0 mi ESE 9.2 mph - N/A   Clear
2:35 PM 75.2 °F 51.8 °F 44% 30.30 in 10.0 mi ESE 5.8 mph - N/A   Clear
2:55 PM 75.2 °F 50.0 °F 41% 30.30 in 10.0 mi East 6.9 mph - N/A   Clear
3:15 PM 75.2 °F 50.0 °F 41% 30.30 in 10.0 mi ESE 6.9 mph - N/A   Clear
3:35 PM 75.2 °F 50.0 °F 41% 30.29 in 10.0 mi East 9.2 mph - N/A   Clear
3:55 PM 77.0 °F 50.0 °F 39% 30.29 in 10.0 mi ESE 8.1 mph - N/A   Clear
4:15 PM 75.2 °F 48.2 °F 38% 30.28 in 10.0 mi SE 8.1 mph - N/A   Clear
4:35 PM 73.4 °F 50.0 °F 44% 30.28 in 10.0 mi ESE 9.2 mph - N/A   Clear
4:55 PM 73.4 °F 48.2 °F 41% 30.27 in 10.0 mi ESE 8.1 mph - N/A   Clear
5:15 PM 71.6 °F 48.2 °F 43% 30.28 in 10.0 mi ESE 8.1 mph - N/A   Clear
5:35 PM 71.6 °F 48.2 °F 43% 30.29 in 10.0 mi ESE 5.8 mph - N/A   Clear
6:15 PM 71.6 °F 48.2 °F 43% 30.29 in 10.0 mi East 3.5 mph - N/A   Clear
6:35 PM 69.8 °F 50.0 °F 49% 30.30 in 10.0 mi Calm Calm - N/A   Clear
6:55 PM 69.8 °F 50.0 °F 49% 30.29 in 10.0 mi East 4.6 mph - N/A   Clear
7:15 PM 68.0 °F 50.0 °F 52% 30.29 in 10.0 mi East 4.6 mph - N/A   Clear
7:35 PM 68.0 °F 50.0 °F 52% 30.28 in 10.0 mi East 6.9 mph - N/A   Clear
7:55 PM 68.0 °F 50.0 °F 52% 30.28 in 10.0 mi East 6.9 mph - N/A   Clear
8:15 PM 66.2 °F 50.0 °F 56% 30.28 in 10.0 mi East 5.8 mph - N/A   Clear
8:35 PM 64.4 °F 50.0 °F 59% 30.28 in 10.0 mi East 4.6 mph - N/A   Clear
8:55 PM 64.4 °F 51.8 °F 64% 30.27 in 10.0 mi Calm Calm - N/A   Clear
9:15 PM 62.6 °F 51.8 °F 68% 30.28 in 10.0 mi Calm Calm - N/A   Clear
9:35 PM 60.8 °F 53.6 °F 77% 30.29 in 10.0 mi Calm Calm - N/A   Clear
9:55 PM 60.8 °F 53.6 °F 77% 30.29 in 10.0 mi Calm Calm - N/A   Clear
10:15 PM 60.8 °F 51.8 °F 72% 30.29 in 10.0 mi Calm Calm - N/A   Clear
10:35 PM 60.8 °F 51.8 °F 72% 30.29 in 10.0 mi Calm Calm - N/A   Clear
10:55 PM 60.8 °F 50.0 °F 68% 30.28 in 10.0 mi Calm Calm - N/A   Clear
11:15 PM 59.0 °F 50.0 °F 72% 30.27 in 10.0 mi East 3.5 mph - N/A   Clear
11:35 PM 59.0 °F 50.0 °F 72% 30.27 in 10.0 mi Calm Calm - N/A   Clear
11:55 PM 57.2 °F 50.0 °F 77% 30.26 in 10.0 mi Calm Calm - N/A   Clear